This demonstration page uses our WeatherBlox Daily Observations layout. Learn more.

Left ArrowRight Arrow

Hourly Observations for April 18, 2015

Temp ( °F °C ) Dew Point ( °F °C ) Humidity (%) Winds ( mph kmh ) Pressure ( in mb ) Visibility ( mi km ) Precip ( " mm )
12:53 am 00:53 Clear 52 11.1 47 8.3 83 83 Calm 30.04 1017 10 16.0934 0 0
1:53 am 01:53 Clear 50 10 45 7.2 83 83 Calm 30.04 1017 10 16.0934 0 0
2:53 am 02:53 Clear 50 10 48 8.9 93 93 W 5 7 30.06 1018 8 12.87472 0 0
3:53 am 03:53 Clear 49 9.4 47 8.3 93 93 Calm 30.06 1018 10 16.0934 0 0
4:53 am 04:53 Clear 47 8.3 46 7.8 97 97 Calm 30.05 1018 8 12.87472 0 0
5:53 am 05:53 Clear 45 7.2 44 6.7 97 97 Calm 30.05 1018 9 14.48406 0 0
6:53 am 06:53 Clear 47 8.3 45 7.2 93 93 Calm 30.06 1018 8 12.87472 0 0
7:53 am 07:53 Sunny 49 9.4 47 8.3 93 93 Calm 30.07 1018 7 11.26538 0 0
8:53 am 08:53 Sunny 57 13.9 50 10 78 78 Calm 30.08 1019 10 16.0934 0 0
9:53 am 09:53 Sunny 65 18.3 50 10 59 59 Calm 30.07 1018 10 16.0934 0 0
10:53 am 10:53 Sunny 69 20.6 50 10 51 51 E 3 6 30.06 1018 10 16.0934 0 0
11:53 am 11:53 Sunny 73 22.8 47 8.3 40 40 Calm 30.06 1018 10 16.0934 0 0
12:53 pm 12:53 Sunny 75 23.9 47 8.3 37 37 E 7 11 30.05 1018 10 16.0934 0 0
1:53 pm 13:53 Sunny 77 25 50 10 39 39 VRB 3 6 30.03 1017 10 16.0934 0 0
2:53 pm 14:53 Sunny 78 25.6 50 10 37 37 undefined N/A 30.02 1017 10 16.0934 0 0
3:53 pm 15:53 Mostly Sunny 78 25.6 49 9.4 36 36 undefined N/A 30.01 1016 10 16.0934 0 0
4:53 pm 16:53 Mostly Sunny 77 25 50 10 39 39 E 12 19 29.98 1015 10 16.0934 0 0
5:53 pm 17:53 Sunny 76 24.4 51 10.6 42 42 E 8 13 29.98 1015 10 16.0934 0 0
6:53 pm 18:53 Sunny 75 23.9 50 10 41 41 ENE 8 13 29.97 1015 10 16.0934 0 0
7:53 pm 19:53 Sunny 72 22.2 50 10 46 46 ENE 7 11 29.96 1015 10 16.0934 0 0
8:53 pm 20:53 Clear 65 18.3 52 11.1 63 63 ENE 5 7 29.98 1015 9 14.48406 0 0
9:53 pm 21:53 Clear 65 18.3 51 10.6 61 61 NE 6 9 29.97 1015 10 16.0934 0 0
10:53 pm 22:53 Clear 63 17.2 52 11.1 68 68 ESE 3 6 29.97 1015 10 16.0934 0 0
11:53 pm 23:53 Clear 67 19.4 49 9.4 53 53 ENE 10 17 29.95 1014 10 16.0934 0 0

Powered by AerisWeather